API VERSION: 1.2 API SOURCE: NASA/JPL Horizons API ******************************************************************************* JPL/HORIZONS 114P/Wiseman-Skiff 2025-Dec-12 17:54:36 Rec #:90000998 (+COV) Soln.date: 2023-Jan-17_10:36:52 # obs: 1860 (2006-2020) IAU76/J2000 helio. ecliptic osc. elements (au, days, deg., period=Julian yrs): EPOCH= 2458217.5 ! 2018-Apr-09.0000000 (TDB) RMSW= n.a. EC= .5544796058473015 QR= 1.57940877101019 TP= 2458862.7383777504 OM= 271.062057267607 W= 172.8433660991442 IN= 18.27303859921894 A= 3.545087479135378 MA= 264.7239310649578 ADIST= 5.510766187260566 PER= 6.6749595282252 N= .147660264 ANGMOM= .026953876 DAN= 5.45785 DDN= 1.58381 L= 84.26284320000001 B= 2.2386707 MOID= .59692699 TP= 2020-Jan-14.2383777504 Comet physical (GM= km^3/s^2; RAD= km): GM= n.a. RAD= .780 M1= 13.9 M2= 16.3 k1= 12.25 k2= 5. PHCOF= .030 COMET comments 1: soln ref.= JPL#K203/20, data arc: 2006-07-21 to 2020-05-14 2: k1=12.25, k2=5., phase coef.=0.03; ******************************************************************************* ******************************************************************************* Ephemeris / API_USER Fri Dec 12 17:54:37 2025 Pasadena, USA / Horizons ******************************************************************************* Target body name: 114P/Wiseman-Skiff {source: JPL#K203/20} Center body name: Earth (399) {source: DE441} Center-site name: GEOCENTRIC ******************************************************************************* Start time : A.D. 2026-Sep-12 00:00:00.0000 UT Stop time : A.D. 2026-Sep-17 00:00:00.0000 UT Step-size : 180 minutes ******************************************************************************* Target pole/equ : undefined Target radii : 0.78 km Center geodetic : 0.0, 0.0, -6378.137 {E-lon(deg),Lat(deg),Alt(km)} Center cylindric: 0.0, 0.0, 0.0 {E-lon(deg),Dxy(km),Dz(km)} Center pole/equ : ITRF93 {East-longitude positive} Center radii : 6378.137, 6378.137, 6356.752 km {Equator_a, b, pole_c} Target primary : Sun Vis. interferer : MOON (R_eq= 1737.400) km {source: DE441} Rel. light bend : Sun {source: DE441} Rel. lght bnd GM: 1.3271E+11 km^3/s^2 Small-body perts: Yes {source: SB441-N16} Atmos refraction: NO (AIRLESS) RA format : HMS Time format : CAL Calendar mode : Mixed Julian/Gregorian EOP file : eop.251212.p260310 EOP coverage : DATA-BASED 1962-JAN-20 TO 2025-DEC-12. PREDICTS-> 2026-MAR-09 Units conversion: 1 au= 149597870.700 km, c= 299792.458 km/s, 1 day= 86400.0 s Table cut-offs 1: Elevation (-90.0deg=NO ),Airmass (>38.000=NO), Daylight (NO ) Table cut-offs 2: Solar elongation ( 0.0,180.0=NO ),Local Hour Angle( 0.0=NO ) Table cut-offs 3: RA/DEC angular rate ( 0.0=NO ) ******************************************************************************* Initial IAU76/J2000 heliocentric ecliptic osculating elements (au, days, deg.): EPOCH= 2458217.5 ! 2018-Apr-09.0000000 (TDB) RMSW= n.a. EC= .5544796058473015 QR= 1.57940877101019 TP= 2458862.7383777504 OM= 271.062057267607 W= 172.8433660991442 IN= 18.27303859921894 Equivalent ICRF heliocentric cartesian coordinates (au, au/d): X= 1.973389012076928E+00 Y=-4.009331305171010E+00 Z=-1.055507783482976E+00 VX= 3.547783295245500E-03 VY= 4.660057996344685E-03 VZ= 3.334358109523843E-03 Comet physical (GM= km^3/s^2; RAD= km): GM= n.a. RAD= .780 M1= 13.9 M2= 16.3 k1= 12.25 k2= 5. PHCOF= .030 ******************************************************************************* Date__(UT)__HR:MN r rdot ************************************************** $$SOE 2026-Sep-12 00:00 1.570997477687 -0.3476698 2026-Sep-12 03:00 1.570972898026 -0.3332454 2026-Sep-12 06:00 1.570949359790 -0.3188199 2026-Sep-12 09:00 1.570926863054 -0.3043933 2026-Sep-12 12:00 1.570905407889 -0.2899659 2026-Sep-12 15:00 1.570884994365 -0.2755374 2026-Sep-12 18:00 1.570865622546 -0.2611081 2026-Sep-12 21:00 1.570847292495 -0.2466780 2026-Sep-13 00:00 1.570830004270 -0.2322471 2026-Sep-13 03:00 1.570813757927 -0.2178154 2026-Sep-13 06:00 1.570798553517 -0.2033830 2026-Sep-13 09:00 1.570784391090 -0.1889500 2026-Sep-13 12:00 1.570771270691 -0.1745164 2026-Sep-13 15:00 1.570759192362 -0.1600822 2026-Sep-13 18:00 1.570748156142 -0.1456475 2026-Sep-13 21:00 1.570738162066 -0.1312123 2026-Sep-14 00:00 1.570729210166 -0.1167767 2026-Sep-14 03:00 1.570721300472 -0.1023407 2026-Sep-14 06:00 1.570714433009 -0.0879044 2026-Sep-14 09:00 1.570708607799 -0.0734678 2026-Sep-14 12:00 1.570703824861 -0.0590310 2026-Sep-14 15:00 1.570700084211 -0.0445940 2026-Sep-14 18:00 1.570697385860 -0.0301568 2026-Sep-14 21:00 1.570695729819 -0.0157195 2026-Sep-15 00:00 1.570695116092 -0.0012822 2026-Sep-15 03:00 1.570695544682 0.0131552 2026-Sep-15 06:00 1.570697015587 0.0275925 2026-Sep-15 09:00 1.570699528804 0.0420297 2026-Sep-15 12:00 1.570703084325 0.0564668 2026-Sep-15 15:00 1.570707682139 0.0709037 2026-Sep-15 18:00 1.570713322232 0.0853404 2026-Sep-15 21:00 1.570720004586 0.0997768 2026-Sep-16 00:00 1.570727729180 0.1142130 2026-Sep-16 03:00 1.570736495989 0.1286487 2026-Sep-16 06:00 1.570746304987 0.1430841 2026-Sep-16 09:00 1.570757156143 0.1575190 2026-Sep-16 12:00 1.570769049422 0.1719534 2026-Sep-16 15:00 1.570781984787 0.1863873 2026-Sep-16 18:00 1.570795962197 0.2008206 2026-Sep-16 21:00 1.570810981608 0.2152532 2026-Sep-17 00:00 1.570827042973 0.2296852 $$EOE ******************************************************************************* Column meaning: TIME Times PRIOR to 1962 are UT1, a mean-solar time closely related to the prior but now-deprecated GMT. Times AFTER 1962 are in UTC, the current civil or "wall-clock" time-scale. UTC is kept within 0.9 seconds of UT1 using integer leap-seconds for 1972 and later years. Conversion from the internal Barycentric Dynamical Time (TDB) of solar system dynamics to the non-uniform civil UT time-scale requested for output has not been determined for UTC times after the next July or January 1st. Therefore, the last known leap-second is used as a constant over future intervals. Time tags refer to the UT time-scale conversion from TDB on Earth regardless of observer location within the solar system, although clock rates may differ due to the local gravity field and no analog to "UT" may be defined for that location. Any 'b' symbol in the 1st-column denotes a B.C. date. First-column blank (" ") denotes an A.D. date. CALENDAR SYSTEM Mixed calendar mode was active such that calendar dates after AD 1582-Oct-15 (if any) are in the modern Gregorian system. Dates prior to 1582-Oct-5 (if any) are in the Julian calendar system, which is automatically extended for dates prior to its adoption on 45-Jan-1 BC. The Julian calendar is useful for matching historical dates. The Gregorian calendar more accurately corresponds to the Earth's orbital motion and seasons. A "Gregorian-only" calendar mode is available if such physical events are the primary interest. NOTE: "n.a." in output means quantity "not available" at the print-time. 'r rdot' = The Sun's apparent range ("r", light-time aberrated) and range-rate ("rdot") relative to the target center, as seen by the observer. A positive "rdot" means the target center was moving away from the Sun, negative means moving toward the Sun. Units: AU and KM/S Computations by ... Solar System Dynamics Group, Horizons On-Line Ephemeris System 4800 Oak Grove Drive, Jet Propulsion Laboratory Pasadena, CA 91109 USA General site: https://ssd.jpl.nasa.gov/ Mailing list: https://ssd.jpl.nasa.gov/email_list.html System news : https://ssd.jpl.nasa.gov/horizons/news.html User Guide : https://ssd.jpl.nasa.gov/horizons/manual.html Connect : browser https://ssd.jpl.nasa.gov/horizons/app.html#/x API https://ssd-api.jpl.nasa.gov/doc/horizons.html command-line telnet ssd.jpl.nasa.gov 6775 e-mail/batch https://ssd.jpl.nasa.gov/ftp/ssd/horizons_batch.txt scripts https://ssd.jpl.nasa.gov/ftp/ssd/SCRIPTS Author : Jon.D.Giorgini@jpl.nasa.gov *******************************************************************************